Theta_e
310 311 312 313 312 311 311 312 312 314 314 317 317 317 318 317 316 315 315 312 307 313 313 324 323 322 316 313 312 310 313 312 309 312 318 314 314 308 305 303 301 299 298 296 295
311 310 312 311 313 312 311 311 311 313 314 315 317 318 318 316 315 314 314 309 314 315 322 324 321 314 312 312 312 313 314 313 312 314 314 305 307 308 305 305 302 300 296 294 294
310 310 309 310 311 312 311 311 311 312 314 315 317 318 317 315 313 312 309 308 310 319 318 320 320 311 312 312 313 311 314 313 312 311 309 305 301 302 307 301 296 296 294 293 292
310 310 310 309 310 310 311 310 310 311 313 315 316 318 315 313 306 312 313 310 307 328 320 318 314 311 312 313 312 313 310 313 312 310 308 304 300 298 297 296 294 293 291 291 290
308 309 308 307 308 309 310 310 310 311 314 315 317 317 314 313 312 311 317 317 318 325 318 313 311 309 311 312 311 312 309 304 302 300 300 299 298 297 295 294 292 291 290 289 288
307 308 307 306 307 308 309 310 310 312 314 314 317 315 314 313 307 312 316 314 318 320 317 312 310 309 309 311 311 307 305 304 304 303 302 300 298 299 295 294 292 291 289 288 287
306 306 305 306 306 307 308 309 312 313 313 314 317 315 314 312 314 318 319 315 313 318 315 312 311 310 307 310 307 307 308 307 307 303 302 303 300 295 293 293 292 290 289 287 286
305 305 305 305 306 306 307 311 313 313 313 315 316 315 314 310 310 315 317 316 321 318 318 314 311 308 309 306 309 310 309 312 309 307 305 304 303 295 291 291 291 290 288 287 285
304 304 305 304 305 305 309 313 313 313 314 315 316 314 311 309 312 316 317 316 314 312 314 315 312 309 308 307 308 310 312 312 311 301 306 304 301 294 291 289 288 289 287 286 284
303 303 303 304 304 306 311 314 313 313 314 315 315 313 310 309 310 317 318 315 311 309 309 311 308 308 306 308 312 310 311 311 311 302 298 298 296 292 290 288 286 287 286 285 283
303 303 303 303 304 306 313 313 312 313 315 313 313 309 308 308 315 313 315 309 308 308 311 308 311 313 311 307 307 307 308 307 303 300 297 296 295 292 289 287 286 285 285 284 282
302 303 303 304 304 306 309 313 312 311 313 313 313 313 311 312 315 311 313 309 308 309 308 309 317 311 308 307 308 307 307 302 300 299 298 296 294 291 289 287 286 285 283 282 281
302 303 303 303 303 305 309 312 313 312 312 312 312 314 311 310 316 312 308 308 308 308 309 312 312 308 309 309 309 308 307 303 306 296 295 295 295 291 288 285 285 283 282 281 280
303 303 304 303 303 306 309 311 312 310 309 310 311 311 309 311 314 311 308 308 308 310 308 310 309 311 309 310 309 310 306 304 299 306 310 297 312 295 289 286 285 282 281 280 279
303 304 304 303 304 306 308 311 310 309 310 312 312 309 309 312 311 312 309 308 309 308 308 311 309 309 311 310 308 310 306 304 303 305 303 301 306 294 289 288 285 281 279 278 277
303 304 302 303 304 306 310 310 307 310 311 313 311 311 310 310 310 309 310 308 307 308 308 309 308 308 309 308 309 307 307 306 307 306 312 305 307 302 291 292 285 281 279 278 276
303 305 303 304 306 305 309 309 310 312 308 313 313 310 311 311 311 311 314 311 310 311 310 310 311 309 308 309 308 309 309 312 315 315 316 304 306 304 291 288 285 281 278 277 275
304 307 307 307 306 308 312 310 310 308 311 312 313 311 312 311 311 311 314 315 310 310 310 312 313 310 309 309 310 309 311 314 317 318 314 305 310 299 285 284 283 280 277 277 276
306 304 302 302 303 309 307 308 310 311 309 311 312 312 312 312 311 310 312 314 312 308 314 315 315 308 309 309 310 310 311 309 311 309 311 307 291 286 283 282 280 278 277 276 274
306 305 304 308 306 310 306 309 309 307 308 309 315 312 313 313 314 312 310 310 313 309 308 311 316 309 308 308 309 309 309 314 312 316 317 305 299 302 285 283 280 279 277 275 274
306 302 304 309 311 308 310 308 307 305 305 313 313 309 307 313 311 313 312 306 305 303 306 308 311 308 308 312 312 311 312 312 312 313 317 315 308 288 287 284 281 279 277 275 273
299 301 301 307 306 303 307 303 301 303 300 305 311 310 309 304 307 310 310 306 298 300 307 306 309 311 308 298 299 302 305 309 316 315 310 306 305 282 285 283 281 279 277 274 272
292 293 300 302 306 304 302 299 298 300 302 303 308 310 309 311 313 303 299 297 298 299 305 303 309 311 307 302 297 302 302 304 306 308 310 316 306 283 285 283 281 278 276 275 272
290 293 293 300 297 302 302 302 302 295 296 296 298 298 306 308 306 308 303 297 295 298 301 301 305 310 314 307 302 301 297 300 309 311 307 304 284 284 284 282 279 278 276 275 273
286 289 289 294 298 293 297 301 300 301 295 294 296 298 300 304 306 304 300 298 297 296 297 301 306 296 293 295 295 295 299 299 303 299 312 297 293 284 283 280 279 278 276 274 272
288 289 288 288 289 291 294 302 301 299 296 298 295 295 299 304 304 304 300 299 301 297 300 298 301 295 294 293 293 292 292 293 291 287 287 287 287 282 281 276 276 276 275 274 272
288 288 287 290 288 290 290 292 293 292 293 292 292 293 293 297 294 299 298 296 298 297 298 299 298 300 299 295 296 301 290 290 287 284 288 294 286 276 277 278 277 274 275 274 272
Wind_Speed
15 15 14 13 12 12 12 12 9 10 13 10 12 13 11 9 8 10 13 12 18 3 13 16 10 8 4 3 3 3 4 3 3 6 6 3 5 5 8 10 9 8 10 7 13
16 15 15 14 13 12 12 11 10 10 10 11 10 12 10 8 8 19 15 20 14 8 16 17 6 8 2 3 2 3 3 6 1 3 6 7 9 4 6 8 9 8 17 17 18
16 15 15 14 14 13 12 10 10 8 7 11 10 11 9 6 2 10 17 26 16 15 17 16 16 5 3 2 3 3 3 4 5 13 10 7 7 5 11 12 10 8 12 18 22
17 15 15 15 14 13 12 10 11 7 7 10 11 11 8 7 7 1 2 24 20 21 17 13 5 6 4 6 4 5 8 5 4 6 7 6 9 9 14 8 9 10 14 18 21
19 17 16 15 15 14 13 11 12 5 7 9 10 14 9 3 8 1 4 22 26 22 18 7 7 5 6 5 4 5 4 11 14 21 16 19 16 12 17 12 13 14 18 18 21
19 18 17 16 16 14 13 12 10 5 6 11 13 15 4 4 4 7 4 26 25 24 13 10 7 4 5 4 3 6 15 14 9 11 7 13 8 6 7 10 12 14 15 19 21
19 19 17 17 16 15 14 12 9 7 7 12 15 15 3 11 3 3 14 22 28 24 7 8 11 5 6 7 8 10 10 8 2 5 9 11 10 10 7 8 12 13 12 15 19
19 19 19 18 16 14 14 9 8 5 8 11 14 6 6 5 7 5 9 14 18 15 16 8 8 6 4 9 5 6 5 5 2 4 2 4 4 5 6 8 11 11 11 13 19
21 20 19 18 16 14 5 3 2 7 9 11 9 4 7 5 4 10 11 13 15 11 8 10 4 4 5 6 4 1 5 4 4 9 3 4 7 7 7 8 9 9 10 10 11
21 22 20 17 14 10 4 3 6 11 11 7 2 1 5 4 5 11 10 18 5 6 5 4 4 3 3 4 7 7 6 4 5 4 13 15 12 8 7 8 8 7 9 10 11
24 21 20 16 11 7 7 9 2 3 5 7 4 3 1 0 10 6 11 9 4 5 5 3 4 9 13 7 6 7 6 7 3 4 7 10 12 7 6 7 7 6 7 8 10
25 20 17 13 9 5 4 2 4 3 4 16 11 9 8 3 3 4 20 6 6 6 6 4 16 6 8 7 8 6 8 5 4 3 6 7 8 6 4 3 4 6 6 6 7
23 19 13 9 5 5 6 8 2 15 3 3 8 5 5 5 4 8 8 4 4 7 7 9 2 10 7 5 6 3 8 6 7 7 9 9 3 6 3 6 7 7 7 7 7
21 16 12 3 2 5 4 15 13 8 3 4 5 6 5 4 3 5 9 6 3 10 5 1 3 15 6 8 7 7 8 9 16 8 4 3 4 6 8 9 7 6 5 7 7
20 12 7 5 1 2 1 6 6 1 2 3 3 2 3 6 6 3 6 4 8 6 7 7 8 7 7 7 6 4 16 12 8 5 5 4 1 2 10 11 10 8 7 6 7
17 9 2 4 4 3 4 4 2 1 5 1 3 4 5 1 2 3 3 4 4 5 1 5 2 6 11 4 10 16 9 7 4 3 3 9 6 5 8 7 12 10 9 9 8
8 2 2 1 1 8 2 4 1 3 4 1 2 4 6 3 2 4 11 6 5 5 5 2 3 2 4 7 3 6 8 3 1 4 6 6 8 1 2 6 14 18 13 9 7
5 2 1 3 4 7 2 2 3 2 2 3 2 6 6 5 3 4 8 13 4 2 3 6 4 9 5 7 9 8 11 6 8 5 4 6 7 2 3 6 13 14 13 11 8
3 2 2 5 4 2 3 2 4 2 1 4 1 3 4 4 3 4 6 14 12 8 5 4 4 2 0 2 13 7 8 9 5 2 3 4 1 3 7 11 15 15 14 11 9
2 1 4 5 1 2 3 4 4 1 1 1 2 2 6 5 8 3 7 5 10 8 4 5 3 2 1 1 1 7 9 5 1 7 6 3 3 4 16 18 17 16 13 11 9
1 3 4 2 2 2 5 5 3 1 1 2 2 3 3 2 9 10 4 2 0 5 6 5 0 1 4 4 5 2 4 2 4 4 5 1 5 3 14 17 18 15 14 12 9
2 1 2 1 2 1 2 3 5 3 1 3 3 7 1 5 4 9 9 1 2 2 8 6 4 4 2 1 3 3 1 3 8 6 1 3 4 2 4 17 17 16 16 11 10
1 2 2 1 2 2 3 3 2 2 4 3 3 4 2 6 3 2 3 3 5 4 7 5 3 3 1 1 3 3 3 0 4 2 7 5 3 6 12 16 15 16 14 12 11
2 2 4 2 1 2 3 4 3 3 3 2 2 1 2 4 3 3 3 1 3 4 1 5 3 5 13 3 3 6 6 5 5 3 5 5 4 6 15 17 15 15 13 12 10
4 0 0 2 2 4 1 3 2 3 3 2 2 6 5 5 3 5 3 2 2 1 3 1 8 4 3 2 4 2 5 7 10 3 7 5 7 17 16 16 15 14 13 12 9
2 3 4 2 2 3 3 3 2 3 2 3 4 3 5 4 4 4 4 4 4 2 3 2 2 3 3 3 4 4 4 6 4 3 6 6 1 2 9 11 11 13 12 11 9
4 2 1 2 2 1 1 3 3 6 0 1 2 3 3 4 1 1 2 3 3 4 4 4 5 3 3 4 5 1 5 4 4 2 3 5 3 13 10 13 13 11 10 10 8
Wind_Direction
336 335 333 334 328 328 324 319 303 298 263 257 238 241 236 234 236 235 237 220 212 141 176 158 154 148 153 130 114 134 82 167 207 148 147 87 97 49 64 74 49 48 57 20 7
337 332 335 329 333 328 322 317 319 297 261 256 238 231 218 231 238 249 234 216 213 175 167 152 136 140 127 134 119 107 131 196 350 122 125 82 85 98 71 59 49 61 37 34 33
335 332 327 329 328 328 325 322 314 283 273 242 230 212 194 195 257 244 235 218 195 178 182 167 150 129 124 123 161 158 170 117 32 108 109 98 69 26 127 50 38 39 27 31 38
333 333 329 325 327 323 315 326 315 280 266 232 218 192 172 166 194 32 302 198 178 179 163 143 127 130 132 153 165 104 28 56 78 79 89 88 94 77 65 96 76 61 56 48 42
335 334 328 324 323 324 323 323 306 267 268 222 204 171 137 229 255 320 305 176 167 170 160 140 133 129 139 149 121 95 121 55 89 78 76 95 83 98 84 93 86 72 60 53 48
333 333 329 323 321 321 320 315 296 262 258 209 187 162 155 247 285 304 229 167 174 173 168 154 157 157 118 136 93 96 96 118 85 98 111 100 85 105 69 94 81 67 61 55 50
334 331 323 324 320 319 319 311 303 260 227 201 183 168 179 248 36 350 165 173 178 180 140 161 163 112 130 102 164 139 97 102 87 112 141 138 33 69 90 89 82 73 67 63 56
334 331 326 320 319 319 320 325 315 202 188 188 173 151 250 266 280 197 157 155 174 171 170 164 153 113 108 112 86 85 83 119 139 167 117 276 130 98 78 87 76 72 64 58 51
332 328 324 320 319 318 309 1 93 133 156 167 148 134 255 293 192 189 178 145 154 148 142 153 87 133 97 108 75 100 149 105 126 20 123 42 132 118 93 88 76 71 60 53 45
330 327 322 317 316 311 317 116 125 126 131 143 105 110 256 222 169 156 179 156 123 121 77 99 67 115 63 111 186 173 157 95 122 29 63 85 115 110 92 99 90 81 74 63 51
330 325 320 314 308 299 113 124 89 82 244 194 218 259 302 120 133 145 149 110 91 83 151 164 136 195 193 165 139 144 123 110 72 41 76 101 128 123 114 107 104 87 80 74 61
329 326 322 309 293 274 214 255 73 298 261 230 245 257 274 231 110 141 156 127 139 166 129 98 211 184 125 140 133 99 118 97 91 100 88 137 128 135 142 117 130 121 98 87 72
332 327 326 312 283 242 196 215 111 4 237 237 197 221 218 159 188 188 147 114 135 147 183 182 212 138 137 143 134 129 147 173 146 116 61 128 180 183 143 133 126 110 108 87 79
336 333 328 314 214 193 205 232 268 329 7 217 186 244 173 169 204 160 171 143 148 181 123 215 178 170 158 181 143 163 156 123 134 149 195 205 259 206 177 178 171 145 128 115 95
339 342 329 195 105 246 133 239 253 122 328 133 174 338 155 162 138 218 178 74 159 164 141 219 163 159 182 183 158 184 138 143 159 108 117 201 267 119 153 207 194 166 144 122 109
334 344 344 176 265 296 313 96 135 17 252 129 129 148 125 142 83 100 137 68 142 126 125 189 146 152 185 144 160 127 91 69 110 108 254 176 186 212 191 211 168 162 150 141 125
337 35 154 254 291 337 302 97 97 201 349 123 184 156 157 147 111 186 168 196 163 134 184 144 201 198 148 100 76 118 121 91 167 195 234 169 179 187 145 148 170 159 155 139 121
9 73 187 247 309 342 297 65 247 262 339 0 255 142 185 150 166 187 178 200 230 126 140 167 206 170 193 170 171 181 171 161 199 191 175 135 225 184 64 95 136 137 134 136 127
45 38 10 356 340 317 71 131 239 205 225 332 300 145 218 173 93 150 205 212 207 178 176 173 246 42 304 162 151 202 205 178 112 60 130 179 263 208 134 130 138 141 142 143 137
358 37 4 349 117 59 70 241 228 204 167 127 277 195 194 192 159 212 194 211 202 178 141 207 212 173 181 214 162 184 159 176 107 168 227 211 245 207 193 176 164 160 154 149 141
4 44 353 85 100 76 214 249 292 103 310 151 247 315 316 214 198 181 219 265 177 152 165 163 254 163 128 253 176 170 178 217 156 165 197 212 242 29 188 174 165 159 156 151 147
65 38 332 293 50 251 225 320 345 294 3 264 183 182 188 319 292 200 201 201 22 107 166 181 131 185 152 55 43 74 315 239 215 210 78 147 245 348 194 159 158 154 157 147 142
72 257 4 45 180 270 288 275 239 279 260 216 253 206 167 191 262 315 9 26 347 188 163 193 174 148 215 117 14 217 196 66 68 21 191 185 227 340 142 153 154 148 148 150 145
65 2 328 37 136 182 292 259 264 163 268 297 295 13 152 222 240 255 228 110 21 314 187 138 173 212 232 158 134 172 181 175 170 179 161 212 161 175 159 154 151 151 147 148 149
27 165 159 302 5 345 295 312 273 287 207 196 258 228 192 221 207 224 178 224 306 25 6 342 197 122 63 89 94 89 155 165 203 181 197 174 167 185 170 156 150 143 143 146 151
50 21 352 264 305 314 287 292 276 310 238 235 233 351 217 243 234 229 150 184 225 145 149 358 215 117 109 86 129 122 121 111 92 106 83 115 161 200 121 113 136 147 155 163 168
27 31 95 299 351 77 244 310 325 346 352 94 293 297 267 253 274 178 133 80 144 165 157 148 140 159 169 124 143 197 188 139 107 62 115 171 128 150 145 152 155 157 167 172 175